This is the latest recevied weather packets stored in our database for station/object KM4KMS. If no packets are shown the sender has not sent any weather packets the latest 10 day(s).
| Time | Temp. | Humidity | Pressure | Rain* | Wind** | Luminosity | Snow |
|---|---|---|---|---|---|---|---|
| 1778171578 | 14.44° C | 46% | 1015.6 hPa | 0 mm | - | 663 W/m² | - |
| 1778171273 | 13.89° C | 43% | 1015.6 hPa | 0 mm | - | 677 W/m² | - |
| 1778170969 | 14.44° C | 47% | 1015.3 hPa | 0 mm | - | 732 W/m² | - |
| 1778170667 | 13.89° C | 45% | 1015.4 hPa | 0 mm | - | 747 W/m² | - |
| 1778170363 | 14.44° C | 47% | 1015.3 hPa | 0 mm | - | 779 W/m² | - |
| 1778170059 | 13.89° C | 52% | 1015.2 hPa | 0 mm | - | 789 W/m² | - |
| 1778169756 | 13.33° C | 50% | 1015.4 hPa | 0 mm | - | 816 W/m² | - |
| 1778169452 | 13.33° C | 48% | 1015.4 hPa | 0 mm | - | 830 W/m² | - |
| 1778169148 | 14.44° C | 49% | 1015.3 hPa | 0 mm | - | 823 W/m² | - |
| 1778168845 | 13.33° C | 54% | 1015.2 hPa | 0 mm | - | 821 W/m² | - |
| 1778168542 | 13.89° C | 52% | 1015.4 hPa | 0 mm | - | 790 W/m² | - |
| 1778168238 | 13.89° C | 53% | 1015.3 hPa | 0 mm | - | 771 W/m² | - |
| 1778167935 | 13.89° C | 54% | 1015.1 hPa | 0 mm | - | 764 W/m² | - |
| 1778167632 | 13.89° C | 53% | 1015.4 hPa | 0 mm | - | 758 W/m² | - |
| 1778167327 | 12.78° C | 49% | 1015.3 hPa | 0 mm | - | 768 W/m² | - |
| 1778167024 | 13.33° C | 51% | 1015.2 hPa | 0 mm | - | 775 W/m² | - |
| 1778166720 | 12.78° C | 52% | 1015.4 hPa | 0 mm | - | 755 W/m² | - |
| 1778166417 | 13.89° C | 51% | 1015.2 hPa | 0 mm | - | 763 W/m² | - |
| 1778166114 | 12.78° C | 51% | 1015.1 hPa | 0 mm | - | 755 W/m² | - |
| 1778165810 | 13.89° C | 52% | 1015.1 hPa | 0 mm | - | 730 W/m² | - |
| 1778165507 | 13.33° C | 52% | 1015.3 hPa | 0 mm | - | 724 W/m² | - |
| 1778165203 | 13.89° C | 54% | 1015.1 hPa | 0 mm | - | 701 W/m² | - |
| 1778164902 | 13.33° C | 54% | 1015.3 hPa | 0 mm | - | 631 W/m² | - |
| 1778164598 | 12.78° C | 51% | 1015.2 hPa | 0 mm | - | 704 W/m² | - |
| 1778164295 | 12.22° C | 55% | 1015.3 hPa | 0 mm | - | 655 W/m² | - |
* Rain latest hour (hover to see other rain measurements)
** Current wind speed in m/s (hover to see current wind gust speed)